| time (UTC) | temp C | wind direction | speed KPH | gust KPH | rain 1hr cm | rain 24hr cm | rain mn cm | humidity % | barometer mb |
| 20260510202003 | 10 | 102 | 1.6 | 4.8 | 0.00 | 0.00 | 0.00 | 58 | 1012.3 |
| 20260510201503 | 10 | 104 | 1.6 | 3.2 | 0.00 | 0.00 | 0.00 | 58 | 1012.2 |
| 20260510201003 | 10 | 104 | 1.6 | 4.8 | 0.00 | 0.00 | 0.00 | 57 | 1012.4 |
| 20260510200503 | 10 | 102 | 1.6 | 4.8 | 0.00 | 0.00 | 0.00 | 56 | 1012.4 |
| 20260510200004 | 10 | 96 | 1.6 | 4.8 | 0.00 | 0.00 | 0.00 | 55 | 1012.5 |
| 20260510195503 | 10 | 99 | 1.6 | 4.8 | 0.00 | 0.00 | 0.00 | 54 | 1012.4 |
| 20260510195003 | 10 | 98 | 1.6 | 4.8 | 0.00 | 0.00 | 0.00 | 53 | 1012.4 |
| 20260510194503 | 10 | 95 | 1.6 | 6.4 | 0.00 | 0.00 | 0.00 | 53 | 1012.5 |
| 20260510194003 | 11 | 100 | 1.6 | 6.4 | 0.00 | 0.00 | 0.00 | 53 | 1012.7 |
| 20260510193503 | 11 | 95 | 1.6 | 6.4 | 0.00 | 0.00 | 0.00 | 52 | 1012.6 |
| 20260510193003 | 11 | 96 | 1.6 | 4.8 | 0.00 | 0.00 | 0.00 | 51 | 1012.7 |
| 20260510192503 | 11 | 104 | 1.6 | 4.8 | 0.00 | 0.00 | 0.00 | 51 | 1012.5 |
| 20260510192003 | 11 | 111 | 1.6 | 4.8 | 0.00 | 0.00 | 0.00 | 50 | 1012.7 |
| 20260510191504 | 12 | 117 | 1.6 | 6.4 | 0.00 | 0.00 | 0.00 | 50 | 1012.6 |
| 20260510191004 | 12 | 117 | 1.6 | 6.4 | 0.00 | 0.00 | 0.00 | 49 | 1012.6 |
| 20260510190503 | 12 | 107 | 1.6 | 4.8 | 0.00 | 0.00 | 0.00 | 48 | 1012.8 |
| 20260510190003 | 12 | 97 | 1.6 | 6.4 | 0.00 | 0.00 | 0.00 | 48 | 1012.5 |
| 20260510185503 | 12 | 94 | 1.6 | 6.4 | 0.00 | 0.00 | 0.00 | 48 | 1012.7 |
| 20260510185213 | 12 | 88 | 1.6 | 6.4 | 0.00 | 0.00 | 0.00 | 47 | 1012.5 |
| 20260510184503 | 12 | 92 | 1.6 | 4.8 | 0.00 | 0.00 | 0.00 | 48 | 1012.5 |
| 20260510184003 | 13 | 98 | 1.6 | 4.8 | 0.00 | 0.00 | 0.00 | 48 | 1012.5 |
| 20260510183503 | 13 | 102 | 1.6 | 4.8 | 0.00 | 0.00 | 0.00 | 47 | 1012.4 |
| 20260510183003 | 13 | 96 | 1.6 | 6.4 | 0.00 | 0.00 | 0.00 | 46 | 1012.2 |
| 20260510182503 | 13 | 102 | 1.6 | 6.4 | 0.00 | 0.00 | 0.00 | 46 | 1012.2 |
| 20260510182003 | 13 | 114 | 1.6 | 6.4 | 0.00 | 0.00 | 0.00 | 46 | 1012.0 |
| 20260510181503 | 13 | 113 | 1.6 | 6.4 | 0.00 | 0.00 | 0.00 | 47 | 1012.1 |
| 20260510181003 | 13 | 114 | 3.2 | 8.0 | 0.00 | 0.00 | 0.00 | 46 | 1012.0 |
| 20260510180503 | 13 | 106 | 3.2 | 9.7 | 0.00 | 0.00 | 0.00 | 45 | 1012.2 |
| 20260510180003 | 14 | 129 | 3.2 | 9.7 | 0.00 | 0.00 | 0.00 | 43 | 1012.3 |
| 20260510175503 | 15 | 148 | 3.2 | 8.0 | 0.00 | 0.00 | 0.00 | 42 | 1012.2 |
| 20260510175003 | 15 | 131 | 3.2 | 8.0 | 0.00 | 0.00 | 0.00 | 43 | 1012.3 |
| 20260510174716 | 15 | 121 | 3.2 | 6.4 | 0.00 | 0.00 | 0.00 | 42 | 1012.4 |
| 20260510174003 | 15 | 125 | 3.2 | 6.4 | 0.00 | 0.00 | 0.00 | 42 | 1012.4 |
| 20260510173503 | 15 | 129 | 3.2 | 6.4 | 0.00 | 0.00 | 0.00 | 41 | 1012.4 |
| 20260510173003 | 15 | 120 | 3.2 | 8.0 | 0.00 | 0.00 | 0.00 | 41 | 1012.3 |
| 20260510172713 | 15 | 112 | 3.2 | 8.0 | 0.00 | 0.00 | 0.00 | 40 | 1012.3 |
| 20260510172004 | 15 | 94 | 3.2 | 6.4 | 0.00 | 0.00 | 0.00 | 41 | 1012.7 |
| 20260510171503 | 14 | 90 | 3.2 | 6.4 | 0.00 | 0.00 | 0.00 | 43 | 1012.6 |
| 20260510171003 | 16 | 112 | 3.2 | 6.4 | 0.00 | 0.00 | 0.00 | 40 | 1012.7 |
| 20260510170715 | 15 | 118 | 3.2 | 6.4 | 0.00 | 0.00 | 0.00 | 40 | 1012.6 |
| 20260510170003 | 15 | 129 | 3.2 | 6.4 | 0.00 | 0.00 | 0.00 | 42 | 1012.8 |
| 20260510165503 | 14 | 122 | 3.2 | 6.4 | 0.00 | 0.00 | 0.00 | 44 | 1012.9 |
| 20260510165003 | 15 | 107 | 3.2 | 6.4 | 0.00 | 0.00 | 0.00 | 43 | 1012.8 |
| 20260510164503 | 15 | 108 | 3.2 | 6.4 | 0.00 | 0.00 | 0.00 | 42 | 1012.9 |
| 20260510164003 | 15 | 114 | 3.2 | 11.3 | 0.00 | 0.00 | 0.00 | 43 | 1012.8 |
| 20260510163503 | 14 | 119 | 3.2 | 11.3 | 0.00 | 0.00 | 0.00 | 45 | 1013.1 |
| 20260510163216 | 14 | 115 | 3.2 | 11.3 | 0.00 | 0.00 | 0.00 | 45 | 1012.9 |
| 20260510162503 | 15 | 121 | 3.2 | 6.4 | 0.00 | 0.00 | 0.00 | 43 | 1013.0 |
| 20260510162003 | 15 | 129 | 1.6 | 6.4 | 0.00 | 0.00 | 0.00 | 42 | 1013.2 |
| 20260510161503 | 16 | 117 | 1.6 | 6.4 | 0.00 | 0.00 | 0.00 | 43 | 1013.1 |
| 20260510161003 | 15 | 118 | 3.2 | 8.0 | 0.00 | 0.00 | 0.00 | 44 | 1013.1 |
| 20260510160503 | 14 | 126 | 3.2 | 8.0 | 0.00 | 0.00 | 0.00 | 45 | 1012.9 |
| 20260510160003 | 15 | 116 | 3.2 | 9.7 | 0.00 | 0.00 | 0.00 | 44 | 1012.8 |
| 20260510155503 | 14 | 110 | 3.2 | 9.7 | 0.00 | 0.00 | 0.00 | 46 | 1013.2 |
| 20260510155004 | 15 | 126 | 3.2 | 12.9 | 0.00 | 0.00 | 0.00 | 47 | 1012.9 |
| 20260510154503 | 15 | 113 | 3.2 | 12.9 | 0.00 | 0.00 | 0.00 | 45 | 1013.0 |
| 20260510154003 | 15 | 116 | 3.2 | 6.4 | 0.00 | 0.00 | 0.00 | 45 | 1012.7 |
| 20260510153503 | 15 | 108 | 3.2 | 8.0 | 0.00 | 0.00 | 0.00 | 43 | 1012.8 |
| 20260510153004 | 15 | 102 | 3.2 | 8.0 | 0.00 | 0.00 | 0.00 | 45 | 1013.0 |
| 20260510152503 | 14 | 120 | 3.2 | 6.4 | 0.00 | 0.00 | 0.00 | 46 | 1013.0 |
| 20260510152003 | 13 | 128 | 3.2 | 6.4 | 0.00 | 0.00 | 0.00 | 47 | 1013.1 |
| 20260510151503 | 15 | 122 | 3.2 | 6.4 | 0.00 | 0.00 | 0.00 | 47 | 1013.3 |
| 20260510151003 | 15 | 108 | 3.2 | 9.7 | 0.00 | 0.00 | 0.00 | 47 | 1013.4 |
| 20260510150503 | 15 | 114 | 3.2 | 9.7 | 0.00 | 0.00 | 0.00 | 47 | 1013.5 |
| 20260510150214 | 15 | 101 | 3.2 | 9.7 | 0.00 | 0.00 | 0.00 | 46 | 1013.5 |
| 20260510145504 | 14 | 85 | 3.2 | 11.3 | 0.00 | 0.00 | 0.00 | 46 | 1013.5 |
| 20260510145003 | 14 | 95 | 3.2 | 9.7 | 0.00 | 0.00 | 0.00 | 48 | 1013.7 |
| 20260510144503 | 15 | 34 | 3.2 | 9.7 | 0.00 | 0.00 | 0.00 | 46 | 1013.6 |
| 20260510144216 | 15 | 5 | 3.2 | 11.3 | 0.00 | 0.00 | 0.00 | 47 | 1013.6 |
| 20260510143503 | 13 | 91 | 3.2 | 11.3 | 0.00 | 0.00 | 0.00 | 48 | 1014.1 |
| 20260510143003 | 15 | 105 | 3.2 | 9.7 | 0.00 | 0.00 | 0.00 | 48 | 1014.0 |
| 20260510142715 | 15 | 105 | 3.2 | 9.7 | 0.00 | 0.00 | 0.00 | 48 | 1013.9 |
| 20260510142213 | 14 | 109 | 3.2 | 8.0 | 0.00 | 0.00 | 0.00 | 48 | 1014.2 |
| 20260510141503 | 13 | 86 | 3.2 | 12.9 | 0.00 | 0.00 | 0.00 | 50 | 1014.0 |
| 20260510141003 | 14 | 90 | 3.2 | 14.5 | 0.00 | 0.00 | 0.00 | 52 | 1014.2 |
| 20260510140727 | 15 | 106 | 3.2 | 14.5 | 0.00 | 0.00 | 0.00 | 51 | 1014.3 |
| 20260510140003 | 13 | 101 | 3.2 | 8.0 | 0.00 | 0.00 | 0.00 | 52 | 1014.0 |
| 20260510135506 | 13 | 118 | 3.2 | 8.0 | 0.00 | 0.00 | 0.00 | 51 | 1014.0 |
| 20260510135004 | 14 | 109 | 3.2 | 11.3 | 0.00 | 0.00 | 0.00 | 52 | 1014.1 |
| 20260510134714 | 14 | 106 | 3.2 | 11.3 | 0.00 | 0.00 | 0.00 | 51 | 1014.1 |
| 20260510134003 | 14 | 103 | 3.2 | 11.3 | 0.00 | 0.00 | 0.00 | 51 | 1014.1 |
| 20260510133503 | 14 | 116 | 3.2 | 9.7 | 0.00 | 0.00 | 0.00 | 51 | 1014.2 |
| 20260510133003 | 14 | 120 | 3.2 | 9.7 | 0.00 | 0.00 | 0.00 | 53 | 1014.4 |
| 20260510132503 | 14 | 104 | 3.2 | 8.0 | 0.00 | 0.00 | 0.00 | 53 | 1014.1 |
| 20260510132003 | 13 | 103 | 3.2 | 6.4 | 0.00 | 0.00 | 0.00 | 53 | 1014.5 |
| 20260510131503 | 14 | 107 | 3.2 | 9.7 | 0.00 | 0.00 | 0.00 | 52 | 1014.2 |
| 20260510131004 | 14 | 113 | 3.2 | 9.7 | 0.00 | 0.00 | 0.00 | 53 | 1014.2 |
| 20260510130503 | 13 | 120 | 3.2 | 6.4 | 0.00 | 0.00 | 0.00 | 55 | 1014.4 |
| 20260510130006 | 12 | 105 | 3.2 | 11.3 | 0.00 | 0.00 | 0.00 | 57 | 1014.6 |
| 20260510125503 | 12 | 97 | 3.2 | 11.3 | 0.00 | 0.00 | 0.00 | 58 | 1014.6 |
| 20260510125004 | 12 | 95 | 3.2 | 11.3 | 0.00 | 0.00 | 0.00 | 59 | 1014.7 |
| 20260510124503 | 12 | 99 | 3.2 | 8.0 | 0.00 | 0.00 | 0.00 | 58 | 1014.7 |
| 20260510123503 | 12 | 110 | 1.6 | 6.4 | 0.00 | 0.00 | 0.00 | 60 | 1014.9 |
| 20260510123003 | 12 | 108 | 3.2 | 8.0 | 0.00 | 0.00 | 0.00 | 59 | 1014.9 |
| 20260510122503 | 12 | 99 | 3.2 | 8.0 | 0.00 | 0.00 | 0.00 | 61 | 1014.9 |
| 20260510122003 | 12 | 84 | 3.2 | 8.0 | 0.00 | 0.00 | 0.00 | 62 | 1015.0 |
| 20260510121503 | 12 | 78 | 3.2 | 11.3 | 0.00 | 0.00 | 0.00 | 61 | 1014.9 |
| 20260510121003 | 12 | 45 | 3.2 | 11.3 | 0.00 | 0.00 | 0.00 | 62 | 1015.1 |
| 20260510120713 | 11 | 60 | 3.2 | 11.3 | 0.00 | 0.00 | 0.00 | 63 | 1015.1 |
| 20260510120004 | 12 | 84 | 3.2 | 9.7 | 0.00 | 0.00 | 0.00 | 64 | 1015.3 |
| 20260510115504 | 11 | 86 | 3.2 | 9.7 | 0.00 | 0.00 | 0.00 | 64 | 1015.3 |
| 20260510115003 | 12 | 100 | 3.2 | 6.4 | 0.00 | 0.00 | 0.00 | 64 | 1015.2 |
| 20260510114503 | 12 | 98 | 3.2 | 9.7 | 0.00 | 0.00 | 0.00 | 64 | 1015.3 |
| 20260510114003 | 11 | 93 | 3.2 | 9.7 | 0.00 | 0.00 | 0.00 | 65 | 1015.4 |
| 20260510113716 | 12 | 90 | 3.2 | 8.0 | 0.00 | 0.00 | 0.00 | 64 | 1015.5 |
| 20260510113003 | 12 | 95 | 3.2 | 8.0 | 0.00 | 0.00 | 0.00 | 65 | 1015.2 |
| 20260510112717 | 12 | 85 | 3.2 | 6.4 | 0.00 | 0.00 | 0.00 | 65 | 1015.4 |
| 20260510112003 | 11 | 59 | 3.2 | 11.3 | 0.00 | 0.00 | 0.00 | 66 | 1015.5 |
| 20260510111503 | 12 | 100 | 3.2 | 8.0 | 0.00 | 0.00 | 0.00 | 65 | 1015.5 |
| 20260510111003 | 12 | 108 | 3.2 | 8.0 | 0.00 | 0.00 | 0.00 | 65 | 1015.7 |
| 20260510110503 | 12 | 109 | 3.2 | 8.0 | 0.00 | 0.00 | 0.00 | 63 | 1015.8 |
| 20260510110004 | 12 | 86 | 3.2 | 6.4 | 0.00 | 0.00 | 0.00 | 64 | 1015.8 |
| 20260510070503 | 9 | 99 | 3.2 | 9.7 | 0.00 | 0.00 | 0.00 | 80 | 1016.4 |
| 20260510070003 | 9 | 107 | 3.2 | 9.7 | 0.00 | 0.00 | 0.00 | 80 | 1016.5 |
| 20260510065503 | 9 | 106 | 3.2 | 9.7 | 0.00 | 0.00 | 0.00 | 80 | 1016.4 |
| 20260510065215 | 9 | 109 | 3.2 | 8.0 | 0.00 | 0.00 | 0.00 | 81 | 1016.3 |
| 20260510064713 | 9 | 108 | 3.2 | 8.0 | 0.00 | 0.00 | 0.00 | 81 | 1016.4 |
| 20260510064004 | 9 | 101 | 3.2 | 8.0 | 0.00 | 0.00 | 0.00 | 81 | 1016.2 |
| 20260510063503 | 9 | 99 | 3.2 | 8.0 | 0.00 | 0.00 | 0.00 | 81 | 1016.3 |
| 20260510063003 | 9 | 96 | 3.2 | 12.9 | 0.00 | 0.00 | 0.00 | 82 | 1016.4 |
| 20260510062503 | 9 | 100 | 3.2 | 12.9 | 0.00 | 0.00 | 0.00 | 82 | 1016.3 |
| 20260510062004 | 9 | 101 | 3.2 | 6.4 | 0.00 | 0.00 | 0.00 | 82 | 1016.4 |
| 20260510061504 | 9 | 100 | 3.2 | 9.7 | 0.00 | 0.00 | 0.00 | 82 | 1016.1 |
| 20260510061003 | 9 | 106 | 3.2 | 9.7 | 0.00 | 0.00 | 0.00 | 83 | 1016.4 |
| 20260510060717 | 9 | 111 | 3.2 | 6.4 | 0.00 | 0.00 | 0.00 | 82 | 1016.3 |
| 20260510060214 | 9 | 99 | 3.2 | 6.4 | 0.00 | 0.00 | 0.00 | 83 | 1016.0 |
| 20260510055503 | 9 | 106 | 3.2 | 6.4 | 0.00 | 0.00 | 0.00 | 83 | 1016.2 |
| 20260510055216 | 9 | 105 | 3.2 | 6.4 | 0.00 | 0.00 | 0.00 | 83 | 1016.1 |
| 20260510054503 | 9 | 100 | 3.2 | 6.4 | 0.00 | 0.00 | 0.00 | 82 | 1016.1 |
| 20260510054216 | 9 | 104 | 3.2 | 6.4 | 0.00 | 0.00 | 0.00 | 83 | 1016.0 |
| 20260510053503 | 9 | 92 | 1.6 | 6.4 | 0.00 | 0.00 | 0.00 | 83 | 1016.2 |
| 20260510053217 | 9 | 98 | 1.6 | 6.4 | 0.00 | 0.00 | 0.00 | 82 | 1016.0 |
| 20260510052503 | 10 | 99 | 1.6 | 6.4 | 0.00 | 0.00 | 0.00 | 82 | 1016.1 |
| 20260510052213 | 10 | 98 | 1.6 | 6.4 | 0.00 | 0.00 | 0.00 | 81 | 1016.1 |
| 20260510051716 | 9 | 88 | 3.2 | 6.4 | 0.00 | 0.00 | 0.00 | 81 | 1016.2 |
| 20260510051003 | 9 | 94 | 3.2 | 8.0 | 0.00 | 0.00 | 0.00 | 81 | 1016.0 |
| 20260510050503 | 9 | 97 | 3.2 | 6.4 | 0.00 | 0.00 | 0.00 | 82 | 1016.2 |
| 20260510050004 | 9 | 94 | 1.6 | 6.4 | 0.00 | 0.00 | 0.00 | 82 | 1016.3 |
| 20260510045503 | 10 | 113 | 1.6 | 4.8 | 0.00 | 0.00 | 0.00 | 82 | 1016.3 |
| 20260510045216 | 10 | 109 | 1.6 | 4.8 | 0.00 | 0.00 | 0.00 | 81 | 1016.2 |
| 20260510044503 | 9 | 101 | 3.2 | 6.4 | 0.00 | 0.00 | 0.00 | 81 | 1016.2 |
| 20260510044217 | 9 | 105 | 1.6 | 6.4 | 0.00 | 0.00 | 0.00 | 81 | 1016.4 |
| 20260510043503 | 9 | 88 | 3.2 | 6.4 | 0.00 | 0.00 | 0.00 | 82 | 1016.3 |
| 20260510043003 | 9 | 64 | 1.6 | 6.4 | 0.00 | 0.00 | 0.00 | 82 | 1016.3 |
| 20260510042503 | 9 | 85 | 1.6 | 6.4 | 0.00 | 0.00 | 0.00 | 82 | 1016.3 |
| 20260510042214 | 9 | 101 | 1.6 | 4.8 | 0.00 | 0.00 | 0.00 | 83 | 1016.5 |
| 20260510041503 | 9 | 96 | 1.6 | 6.4 | 0.00 | 0.00 | 0.00 | 82 | 1016.3 |
| 20260510041003 | 9 | 93 | 3.2 | 6.4 | 0.00 | 0.00 | 0.00 | 83 | 1016.6 |
| 20260510040503 | 9 | 102 | 3.2 | 6.4 | 0.00 | 0.00 | 0.00 | 83 | 1016.6 |
| 20260510040004 | 9 | 99 | 3.2 | 6.4 | 0.00 | 0.00 | 0.00 | 83 | 1016.5 |
| 20260510035714 | 9 | 101 | 3.2 | 6.4 | 0.00 | 0.00 | 0.00 | 83 | 1016.6 |
| 20260510035003 | 9 | 110 | 1.6 | 6.4 | 0.00 | 0.00 | 0.00 | 83 | 1016.6 |
| 20260510034503 | 9 | 78 | 3.2 | 6.4 | 0.00 | 0.00 | 0.00 | 83 | 1016.6 |
| 20260510034003 | 9 | 72 | 3.2 | 6.4 | 0.00 | 0.00 | 0.00 | 83 | 1016.6 |
| 20260510033503 | 9 | 98 | 1.6 | 4.8 | 0.00 | 0.00 | 0.00 | 84 | 1016.5 |
| 20260510033003 | 9 | 101 | 1.6 | 4.8 | 0.00 | 0.00 | 0.00 | 83 | 1016.7 |
| 20260510032717 | 9 | 112 | 1.6 | 4.8 | 0.00 | 0.00 | 0.00 | 84 | 1016.5 |
| 20260510032003 | 9 | 115 | 1.6 | 6.4 | 0.00 | 0.00 | 0.00 | 84 | 1016.6 |
| 20260510031503 | 9 | 102 | 1.6 | 6.4 | 0.00 | 0.00 | 0.00 | 84 | 1016.6 |
| 20260510031215 | 9 | 100 | 1.6 | 6.4 | 0.00 | 0.00 | 0.00 | 84 | 1016.9 |
| 20260510030503 | 9 | 105 | 1.6 | 4.8 | 0.00 | 0.00 | 0.00 | 85 | 1016.7 |
| 20260510030004 | 9 | 103 | 1.6 | 4.8 | 0.00 | 0.00 | 0.00 | 85 | 1016.7 |
| 20260510025503 | 9 | 105 | 1.6 | 4.8 | 0.00 | 0.00 | 0.00 | 85 | 1016.7 |
| 20260510025217 | 9 | 109 | 3.2 | 6.4 | 0.00 | 0.00 | 0.00 | 84 | 1016.6 |
| 20260510024504 | 9 | 106 | 3.2 | 6.4 | 0.00 | 0.00 | 0.00 | 84 | 1016.6 |
| 20260510024214 | 9 | 97 | 1.6 | 6.4 | 0.00 | 0.00 | 0.00 | 84 | 1016.8 |
| 20260510023503 | 9 | 84 | 1.6 | 6.4 | 0.00 | 0.00 | 0.00 | 84 | 1016.8 |
| 20260510023003 | 9 | 97 | 3.2 | 6.4 | 0.00 | 0.00 | 0.00 | 84 | 1016.8 |
| 20260510022504 | 9 | 115 | 3.2 | 6.4 | 0.00 | 0.00 | 0.00 | 83 | 1016.7 |
| 20260510022003 | 9 | 108 | 3.2 | 6.4 | 0.00 | 0.00 | 0.00 | 83 | 1016.8 |
| 20260510021503 | 9 | 105 | 3.2 | 4.8 | 0.00 | 0.00 | 0.00 | 83 | 1016.9 |
| 20260510021004 | 9 | 105 | 3.2 | 6.4 | 0.00 | 0.00 | 0.00 | 83 | 1017.0 |
| 20260510020503 | 9 | 95 | 3.2 | 6.4 | 0.00 | 0.00 | 0.00 | 82 | 1016.9 |
| 20260510020003 | 9 | 93 | 3.2 | 6.4 | 0.00 | 0.00 | 0.00 | 83 | 1017.1 |
| 20260510015503 | 9 | 107 | 3.2 | 6.4 | 0.00 | 0.00 | 0.00 | 83 | 1016.9 |
| 20260510015213 | 9 | 108 | 3.2 | 6.4 | 0.00 | 0.00 | 0.00 | 83 | 1017.0 |
| 20260510014504 | 9 | 100 | 3.2 | 9.7 | 0.00 | 0.00 | 0.00 | 83 | 1016.9 |
| 20260510014003 | 9 | 93 | 3.2 | 9.7 | 0.00 | 0.00 | 0.00 | 83 | 1017.2 |
| 20260510013503 | 9 | 88 | 3.2 | 9.7 | 0.00 | 0.00 | 0.00 | 83 | 1016.8 |
| 20260510013003 | 9 | 102 | 3.2 | 9.7 | 0.00 | 0.00 | 0.00 | 83 | 1016.9 |
| 20260510012504 | 9 | 110 | 3.2 | 8.0 | 0.00 | 0.00 | 0.00 | 84 | 1017.0 |
| 20260510012216 | 9 | 110 | 3.2 | 8.0 | 0.00 | 0.00 | 0.00 | 84 | 1017.0 |
| 20260510011503 | 9 | 101 | 3.2 | 9.7 | 0.00 | 0.00 | 0.00 | 84 | 1016.8 |
| 20260510011003 | 9 | 111 | 3.2 | 8.0 | 0.00 | 0.00 | 0.00 | 84 | 1016.8 |
| 20260510010503 | 9 | 73 | 3.2 | 17.7 | 0.00 | 0.00 | 0.00 | 84 | 1017.0 |
| 20260510010003 | 9 | 66 | 3.2 | 17.7 | 0.00 | 0.00 | 0.00 | 83 | 1017.1 |
| 20260510005503 | 9 | 99 | 3.2 | 8.0 | 0.00 | 0.00 | 0.00 | 84 | 1016.9 |
| 20260510005003 | 9 | 99 | 3.2 | 8.0 | 0.00 | 0.00 | 0.00 | 84 | 1017.1 |
| 20260510004503 | 9 | 100 | 3.2 | 8.0 | 0.00 | 0.00 | 0.00 | 84 | 1017.1 |
| 20260510004003 | 10 | 98 | 3.2 | 6.4 | 0.00 | 0.00 | 0.00 | 84 | 1016.8 |
| 20260510003503 | 10 | 71 | 3.2 | 6.4 | 0.00 | 0.00 | 0.00 | 83 | 1016.8 |
| 20260510003004 | 10 | 74 | 3.2 | 8.0 | 0.00 | 0.00 | 0.00 | 83 | 1016.9 |
| 20260510002503 | 10 | 94 | 3.2 | 8.0 | 0.00 | 0.00 | 0.00 | 84 | 1017.0 |
| 20260510002004 | 9 | 97 | 1.6 | 6.4 | 0.00 | 0.00 | 0.00 | 84 | 1016.8 |
| 20260510001503 | 9 | 109 | 1.6 | 6.4 | 0.00 | 0.00 | 0.00 | 84 | 1016.8 |
| 20260510001217 | 9 | 108 | 1.6 | 6.4 | 0.00 | 0.00 | 0.00 | 84 | 1016.7 |
| 20260510000503 | 10 | 95 | 3.2 | 8.0 | 0.00 | 0.00 | 0.00 | 84 | 1016.6 |
| 20260510000003 | 10 | 90 | 3.2 | 12.9 | 0.00 | 0.00 | 0.00 | 83 | 1016.9 |
| 20260509235503 | 10 | 106 | 3.2 | 12.9 | 0.00 | 0.00 | 0.00 | 83 | 1016.6 |
| 20260509235003 | 10 | 126 | 1.6 | 6.4 | 0.00 | 0.00 | 0.00 | 83 | 1016.8 |
| 20260509234503 | 10 | 77 | 3.2 | 14.5 | 0.00 | 0.00 | 0.00 | 83 | 1016.7 |
| 20260509234003 | 10 | 55 | 3.2 | 14.5 | 0.00 | 0.00 | 0.00 | 83 | 1016.6 |
| 20260509233503 | 10 | 90 | 3.2 | 9.7 | 0.00 | 0.00 | 0.00 | 82 | 1016.6 |
| 20260509233003 | 10 | 90 | 3.2 | 9.7 | 0.00 | 0.00 | 0.00 | 82 | 1016.6 |
| 20260509232503 | 10 | 55 | 3.2 | 6.4 | 0.00 | 0.00 | 0.00 | 82 | 1016.8 |
| 20260509232217 | 10 | 90 | 3.2 | 6.4 | 0.00 | 0.00 | 0.00 | 82 | 1016.7 |
| 20260509231503 | 10 | 68 | 3.2 | 8.0 | 0.00 | 0.00 | 0.00 | 81 | 1016.7 |
| 20260509231003 | 10 | 65 | 3.2 | 9.7 | 0.00 | 0.00 | 0.00 | 81 | 1016.6 |
| 20260509230503 | 11 | 108 | 3.2 | 9.7 | 0.00 | 0.00 | 0.00 | 81 | 1016.7 |
| 20260509230224 | 11 | 110 | 3.2 | 9.7 | 0.00 | 0.00 | 0.00 | 81 | 1016.7 |
| 20260509225503 | 11 | 111 | 3.2 | 11.3 | 0.00 | 0.00 | 0.00 | 80 | 1016.6 |
| 20260509225003 | 11 | 118 | 3.2 | 11.3 | 0.00 | 0.00 | 0.00 | 80 | 1016.5 |
| 20260509224503 | 11 | 117 | 3.2 | 9.7 | 0.00 | 0.00 | 0.00 | 80 | 1016.4 |
| 20260509224004 | 11 | 112 | 3.2 | 6.4 | 0.00 | 0.00 | 0.00 | 79 | 1016.3 |
| 20260509223503 | 11 | 115 | 3.2 | 9.7 | 0.00 | 0.00 | 0.00 | 79 | 1016.4 |
| 20260509223003 | 11 | 121 | 3.2 | 11.3 | 0.00 | 0.00 | 0.00 | 78 | 1016.3 |
| 20260509222503 | 11 | 115 | 3.2 | 11.3 | 0.00 | 0.00 | 0.00 | 78 | 1016.2 |
| 20260509222003 | 11 | 108 | 3.2 | 8.0 | 0.00 | 0.00 | 0.00 | 78 | 1016.4 |
| 20260509221503 | 11 | 109 | 3.2 | 6.4 | 0.00 | 0.00 | 0.00 | 78 | 1016.3 |
| 20260509221003 | 11 | 114 | 3.2 | 6.4 | 0.00 | 0.00 | 0.00 | 77 | 1016.4 |
| 20260509220503 | 11 | 106 | 3.2 | 6.4 | 0.00 | 0.00 | 0.00 | 77 | 1016.6 |
| 20260509220003 | 11 | 96 | 3.2 | 6.4 | 0.00 | 0.00 | 0.00 | 77 | 1016.4 |
| 20260509215503 | 11 | 104 | 3.2 | 6.4 | 0.00 | 0.00 | 0.00 | 78 | 1016.4 |
| 20260509215004 | 11 | 98 | 1.6 | 6.4 | 0.00 | 0.00 | 0.00 | 79 | 1016.6 |
| 20260509214713 | 11 | 94 | 1.6 | 4.8 | 0.00 | 0.00 | 0.00 | 80 | 1016.5 |
| 20260509214003 | 12 | 84 | 1.6 | 8.0 | 0.00 | 0.00 | 0.00 | 80 | 1016.5 |
| 20260509213503 | 12 | 51 | 1.6 | 8.0 | 0.00 | 0.00 | 0.00 | 80 | 1016.4 |
| 20260509213004 | 12 | 75 | 1.6 | 6.4 | 0.00 | 0.00 | 0.00 | 80 | 1016.5 |
| 20260509212503 | 12 | 67 | 1.6 | 6.4 | 0.00 | 0.00 | 0.00 | 80 | 1016.4 |
| 20260509212003 | 12 | 25 | 1.6 | 6.4 | 0.00 | 0.00 | 0.00 | 80 | 1016.4 |
| 20260509211503 | 12 | 38 | 1.6 | 6.4 | 0.00 | 0.00 | 0.00 | 80 | 1016.3 |
| 20260509211214 | 12 | 68 | 1.6 | 4.8 | 0.00 | 0.00 | 0.00 | 80 | 1016.3 |
| 20260509210503 | 12 | 48 | 1.6 | 6.4 | 0.00 | 0.00 | 0.00 | 80 | 1016.2 |
| 20260509210215 | 12 | 34 | 1.6 | 6.4 | 0.00 | 0.00 | 0.00 | 79 | 1016.0 |
| 20260509205503 | 12 | 28 | 1.6 | 8.0 | 0.00 | 0.00 | 0.00 | 79 | 1015.8 |
| 20260509205003 | 13 | 22 | 1.6 | 8.0 | 0.00 | 0.00 | 0.00 | 78 | 1015.7 |
| 20260509204714 | 13 | 18 | 1.6 | 8.0 | 0.00 | 0.00 | 0.00 | 78 | 1016.0 |
| 20260509204003 | 13 | 5 | 1.6 | 8.0 | 0.00 | 0.00 | 0.00 | 76 | 1015.8 |
| 20260509203504 | 13 | 354 | 1.6 | 8.0 | 0.00 | 0.00 | 0.00 | 75 | 1015.8 |
| 20260509203218 | 13 | 354 | 1.6 | 8.0 | 0.00 | 0.00 | 0.00 | 75 | 1015.9 |
| 20260509202503 | 14 | 33 | 1.6 | 6.4 | 0.00 | 0.03 | 0.00 | 73 | 1015.5 |